Baku, Azerbaijan

5:43 PM +04 on May 26, 2018 (GMT +0400)
Bina

Weather History for UBBB - February, 2018

Change the Weather History Date:

Saturday, February 3, 2018

  Actual Average (WUND) Record (WUND)
Temperature  
Mean Temperature 43 °F -  
Max Temperature 52 °F - - (-1)
Min Temperature 34 °F - - (-1)
Degree Days  
Heating Degree Days 22    
Moisture  
Dew Point 38 °F    
Average Humidity 84    
Maximum Humidity 100    
Minimum Humidity 50    
Precipitation  
Precipitation 0.00 in - - ()
Sea Level Pressure  
Sea Level Pressure 30.24 in    
Wind  
Wind Speed 8 mph ()    
Max Wind Speed 23 mph    
Max Gust Speed -    
Visibility 4.3 miles    
Events Fog    
Averages and records for this station are not official NWS values.
T = Trace of Precipitation, MM = Missing Value Source: Averaged Metar Reports

Daily Weather History Graph

Daily Weather History Graph

Search for Another Location

Airport or City:

Astronomy

Feb. 03, 2018 Rise Set
Actual Time 7:47 AM +04 6:00 PM +04
Civil Twilight 7:18 AM +04 6:28 PM +04
Nautical Twilight 6:46 AM +04 7:01 PM +04
Astronomical Twilight 6:14 AM +04 7:33 PM +04
Moon 9:26 PM +04 (2/3) 9:37 AM +04 (2/3)
Length of Visible Light 11h 09m
Length of Day
10h 12m
Waning Gibbous, 90% of the Moon is Illuminated
Feb 3
Waning Gibbous
Feb 7
Last Quarter
Feb 16
New
Feb 23
First Quarter
Mar 2
Full

Hourly Weather History & Observations

Time (+04) Temp. Windchill Dew Point Humidity Pressure Visibility Wind Dir Wind Speed Gust Speed Precip Events Conditions
12:00 AM 35.6 °F - 33.8 °F 93% 30.30 in 5.0 mi Calm Calm - N/A   Scattered Clouds
12:30 AM 33.8 °F - 33.8 °F 100% 30.30 in 4.3 mi Calm Calm - N/A   Unknown
1:00 AM 36 °F - 34 °F 91% 30.31 in 6 mi Calm Calm - -  
1:00 AM 33.8 °F 30.8 °F 32.0 °F 93% 30.30 in 1.2 mi SSE 3.5 mph - N/A   Mist
1:30 AM 33.8 °F 29.6 °F 32.0 °F 93% 30.30 in 3.1 mi South 4.6 mph - N/A   Mist
2:00 AM 33.8 °F 27.0 °F 32.0 °F 93% 30.27 in 5.0 mi SSE 8.1 mph - N/A   Unknown
2:30 AM 33.8 °F 26.4 °F 32.0 °F 93% 30.27 in 5.0 mi SSE 9.2 mph - N/A   Unknown
3:00 AM 33.8 °F 25.8 °F 32.0 °F 93% 30.27 in 4.3 mi SSE 10.4 mph - N/A   Mostly Cloudy
3:30 AM 41.0 °F 35.8 °F 39.2 °F 93% 30.27 in 0.9 mi SSE 8.1 mph - N/A   Mostly Cloudy
4:00 AM 40 °F - 38 °F 89% 30.26 in 1 mi SE 11.2 mph - -   Mist
4:00 AM 39.2 °F 33.6 °F 39.2 °F 100% 30.24 in 0.1 mi South 8.1 mph - N/A Fog Fog
4:30 AM 39.2 °F 33.0 °F 39.2 °F 100% 30.24 in 0.1 mi South 9.2 mph - N/A Fog Fog
5:00 AM 37.4 °F 30.8 °F 37.4 °F 100% 30.24 in 0.2 mi South 9.2 mph - N/A Fog Fog
5:30 AM 37.4 °F 29.8 °F 37.4 °F 100% 30.24 in 0.2 mi SSE 11.5 mph - N/A Fog Fog
6:00 AM 39.2 °F 30.8 °F 39.2 °F 100% 30.21 in 0.4 mi SSE 15.0 mph - N/A Fog Fog
6:30 AM 39.2 °F 32.0 °F 39.2 °F 100% 30.21 in 1.2 mi SSE 11.5 mph - N/A   Scattered Clouds
7:00 AM 39 °F - 37 °F 92% 30.23 in 1 mi SE 8.9 mph - -   Mist
7:00 AM 39.2 °F 31.6 °F 39.2 °F 100% 30.21 in 1.9 mi SSE 12.7 mph - N/A   Scattered Clouds
7:30 AM 41.0 °F 33.9 °F 41.0 °F 100% 30.21 in 3.1 mi SSE 12.7 mph - N/A   Scattered Clouds
8:00 AM 41.0 °F 33.1 °F 41.0 °F 100% 30.21 in 3.7 mi SSE 15.0 mph - N/A   Mostly Cloudy
8:30 AM 41.0 °F 33.9 °F 41.0 °F 100% 30.21 in 6.2 mi South 12.7 mph - N/A   Mostly Cloudy
9:00 AM 44.6 °F 38.8 °F 41.0 °F 87% 30.24 in - SSW 11.5 mph - N/A   Clear
9:30 AM 44.6 °F 38.4 °F 39.2 °F 81% 30.24 in 6.2 mi SSW 12.7 mph - N/A   Mostly Cloudy
10:00 AM 46 °F - 40 °F 73% 30.24 in 6 mi SSE 15.7 mph - -   Mostly Cloudy
10:00 AM 46.4 °F 40.1 °F 39.2 °F 76% 30.24 in 6.2 mi SSW 15.0 mph - N/A   Mostly Cloudy
10:30 AM 48.2 °F - 39.2 °F 71% 30.21 in 6.2 mi South 15.0 mph - N/A   Mostly Cloudy
11:00 AM 48.2 °F - 37.4 °F 66% 30.21 in - South 16.1 mph - N/A   Clear
11:30 AM 50.0 °F - 39.2 °F 66% 30.21 in - SSW 15.0 mph - N/A   Clear
12:00 PM 50.0 °F - 35.6 °F 58% 30.21 in - SSW 17.3 mph - N/A   Clear
12:30 PM 50.0 °F - 35.6 °F 58% 30.18 in - South 18.4 mph - N/A   Clear
1:00 PM 50 °F - 37 °F 50% 30.20 in 6 mi SSE 15.7 mph - -  
1:00 PM 50.0 °F - 39.2 °F 66% 30.18 in - South 19.6 mph - N/A   Clear
1:30 PM 51.8 °F - 39.2 °F 62% 30.18 in - SSW 16.1 mph - N/A   Clear
2:00 PM 51.8 °F - 41.0 °F 67% 30.18 in - SSW 18.4 mph - N/A   Clear
2:30 PM 51.8 °F - 39.2 °F 62% 30.18 in - South 23.0 mph - N/A   Clear
3:00 PM 51.8 °F - 41.0 °F 67% 30.18 in - SSW 18.4 mph - N/A   Clear
3:30 PM 51.8 °F - 39.2 °F 62% 30.18 in - SSW 16.1 mph - N/A   Clear
4:00 PM 49 °F - 39 °F 58% 30.20 in 6 mi SSE 15.7 mph - -  
4:00 PM 48.2 °F - 39.2 °F 71% 30.21 in - South 16.1 mph - N/A   Clear
4:30 PM 48.2 °F - 39.2 °F 71% 30.18 in - South 13.8 mph - N/A   Clear
5:00 PM 46.4 °F 40.7 °F 39.2 °F 76% 30.21 in - South 12.7 mph - N/A   Clear
5:30 PM 44.6 °F 39.2 °F 39.2 °F 81% 30.21 in - South 10.4 mph - N/A   Clear
6:00 PM 42.8 °F 37.0 °F 39.2 °F 87% 30.21 in - SSE 10.4 mph - N/A   Clear
6:30 PM 42.8 °F 38.0 °F 39.2 °F 87% 30.24 in 6.2 mi SSE 8.1 mph - N/A   Scattered Clouds
7:00 PM 43 °F - 39 °F 80% 30.25 in 6 mi SSE 4.5 mph - -  
7:00 PM 41.0 °F 35.8 °F 39.2 °F 93% 30.24 in 6.2 mi SSE 8.1 mph - N/A   Scattered Clouds
7:30 PM 41.0 °F 36.4 °F 39.2 °F 93% 30.27 in 6.2 mi SSE 6.9 mph - N/A   Mostly Cloudy
8:00 PM 42.8 °F 39.3 °F 41.0 °F 93% 30.27 in 6.2 mi SSE 5.8 mph - N/A   Mostly Cloudy
8:30 PM 42.8 °F 38.6 °F 41.0 °F 93% 30.27 in 6.2 mi SSE 6.9 mph - N/A   Mostly Cloudy
9:00 PM 42.8 °F 38.0 °F 41.0 °F 93% 30.27 in 6.2 mi SSE 8.1 mph - N/A   Mostly Cloudy
9:30 PM 41.0 °F 36.4 °F 39.2 °F 93% 30.27 in 6.2 mi SSE 6.9 mph - N/A   Mostly Cloudy
10:00 PM 44 °F - 40 °F 80% 30.28 in 6 mi ESE 2.2 mph - -   Mostly Cloudy
10:00 PM 42.8 °F 38.6 °F 41.0 °F 93% 30.27 in 6.2 mi SSE 6.9 mph - N/A   Mostly Cloudy
10:30 PM 41.0 °F 37.1 °F 39.2 °F 93% 30.27 in 6.2 mi SSE 5.8 mph - N/A   Mostly Cloudy
11:00 PM 42.8 °F 39.3 °F 41.0 °F 93% 30.27 in 6.2 mi SSE 5.8 mph - N/A   Mostly Cloudy
11:30 PM 42.8 °F 40.1 °F 41.0 °F 93% 30.27 in 6.2 mi SSE 4.6 mph - N/A   Mostly Cloudy